Location: Newark
(41.8083°N, 72.2500°W)
Time: 11:28:08
(UTC+00:00)

Altair - Pass Details

Date: 03 December 2021
Orbit: 1501 x 1683 km, 47.2° (Epoch: 27 January)

Event Time Altitude Azimuth Distance (km) Brightness Sun altitude
Rises 02:14:41 0° 295° (WNW) 4,663 10.6 -54.0°
Reaches altitude 10° 02:17:44 10° 295° (WNW) 3,668 9.9 -54.6°
Enters shadow 02:20:29 23° 293° (WNW) 2,802 9.1 -55.0°
